TimeCDT,TemperatureF,Dew PointF,Humidity,Sea Level PressureIn,VisibilityMPH,Wind Direction,Wind SpeedMPH,Gust SpeedMPH,PrecipitationIn,Events,Conditions,WindDirDegrees,DateUTC
12:53 AM,77.0,69.1,76,29.97,10.0,North,4.6,-,N/A,,Clear,360,2013-08-17 05:53:00
1:53 AM,75.9,70.0,82,29.96,10.0,North,3.5,-,N/A,,Clear,350,2013-08-17 06:53:00
2:53 AM,75.0,69.1,82,29.94,10.0,Calm,Calm,-,N/A,,Clear,0,2013-08-17 07:53:00
3:53 AM,75.0,68.0,79,29.94,10.0,North,5.8,-,N/A,,Clear,10,2013-08-17 08:53:00
4:53 AM,73.0,68.0,84,29.94,10.0,North,6.9,-,N/A,,Clear,350,2013-08-17 09:53:00
5:53 AM,73.0,66.9,81,29.95,10.0,North,8.1,-,N/A,,Clear,10,2013-08-17 10:53:00
6:53 AM,72.0,66.9,84,29.96,10.0,North,5.8,-,N/A,,Clear,360,2013-08-17 11:53:00
7:53 AM,73.9,66.9,79,29.96,10.0,North,10.4,-,N/A,,Clear,10,2013-08-17 12:53:00
8:53 AM,77.0,69.1,76,29.97,10.0,NNE,6.9,-,N/A,,Clear,20,2013-08-17 13:53:00
9:53 AM,82.0,71.1,69,29.98,10.0,NE,5.8,-,N/A,,Clear,40,2013-08-17 14:53:00
10:53 AM,84.9,72.0,65,29.98,10.0,NNE,8.1,-,N/A,,Clear,20,2013-08-17 15:53:00
11:53 AM,88.0,71.1,57,29.97,10.0,NNE,9.2,-,N/A,,Clear,30,2013-08-17 16:53:00
12:53 PM,90.0,70.0,52,29.96,10.0,NNE,11.5,-,N/A,,Partly Cloudy,30,2013-08-17 17:53:00
1:53 PM,91.0,71.1,52,29.94,10.0,NE,10.4,27.6,N/A,,Partly Cloudy,40,2013-08-17 18:53:00
2:53 PM,91.0,71.1,52,29.92,10.0,NE,9.2,-,N/A,,Partly Cloudy,50,2013-08-17 19:53:00
3:53 PM,91.9,71.1,50,29.91,10.0,NNE,10.4,-,N/A,,Partly Cloudy,30,2013-08-17 20:53:00
4:53 PM,90.0,72.0,55,29.91,10.0,NNE,10.4,-,N/A,,Mostly Cloudy,30,2013-08-17 21:53:00
5:25 PM,84.2,73.4,70,29.92,1.8,North,-9999.0,-,0.12,Rain,Heavy Rain,0,2013-08-17 22:25:00
5:35 PM,82.4,73.4,74,29.92,3.0,SE,5.8,-,0.14,Rain,Light Rain,130,2013-08-17 22:35:00
5:53 PM,82.9,73.9,74,29.92,6.0,NNE,3.5,-,0.15,Rain,Light Rain,30,2013-08-17 22:53:00
6:53 PM,84.0,73.9,72,29.92,10.0,ENE,5.8,-,0.00,,Mostly Cloudy,70,2013-08-17 23:53:00
7:53 PM,81.0,73.0,77,29.94,10.0,East,3.5,-,N/A,,Clear,80,2013-08-18 00:53:00
8:53 PM,82.0,72.0,71,29.95,10.0,ENE,4.6,-,N/A,,Mostly Cloudy,60,2013-08-18 01:53:00
9:31 PM,80.6,71.6,74,29.96,10.0,ENE,6.9,-,N/A,,Mostly Cloudy,60,2013-08-18 02:31:00
9:53 PM,80.1,72.0,76,29.97,10.0,ENE,5.8,-,N/A,,Overcast,70,2013-08-18 02:53:00
10:28 PM,80.6,71.6,74,29.97,10.0,ENE,5.8,-,N/A,,Overcast,70,2013-08-18 03:28:00
10:53 PM,79.0,72.0,79,29.96,10.0,ENE,4.6,-,N/A,,Mostly Cloudy,70,2013-08-18 03:53:00
11:53 PM,78.1,72.0,81,29.96,10.0,NNE,4.6,-,N/A,,Clear,30,2013-08-18 04:53:00